Погода в Яргунькине

Россия / Чувашская Республика     55°46′02″N   46°41′27″E
темп.,
°C
ветер,
м/с
пор.,
м/с
влажн.,
%
обл.,
%
осадки,
мм/ч
давл.,
гПа
погр.,
м
6 мая, чт
чт600:00+5зюз2575100 0.0 1011106
03:00+5ююз2485100 0.1 1012103
06:00+7ююз3691100 0.0 1013208
09:00+10юз358587 0.1 1014430
12:00+15юз476481 0.0 10141004
15:00+18юз6854100 0.0 10132171
18:00+15ююз51069100 0.0 1012389
21:00+11ю41378100 0.0 1013304
7 мая, пт
пт700:00+10ю41383100 0.0 1013269
03:00+10ю51280100 0.0 1013274
06:00+11ю61475100 0.0 1012397
09:00+14ю71364100 0.0 1012716
12:00+16ююз91359100 0.2 10111684
15:00+16юз71264100 0.8 10111581
18:00+7сз4792100 1.4 1015319
21:00+6зсз2294100 1.5 101724
8 мая, сб
сб800:00+5з119098 0.0 101810
03:00+4юв01895 0.0 101910
06:00+7вюв12835 0.0 1019104
09:00+11вюв4563100 0.0 1018791
12:00+14юв56565 0.0 10161323
15:00+14юв796867 0.0 10141000
18:00+15юв5972100 0.0 1011336
21:00+12ююв51481100 0.0 1011288
9 мая, вс
вс900:00+11ююв41185100 0.0 1010232
03:00+11ююв61484100 0.4 1010619
06:00+11ю61490100 1.0 1010636
09:00+10з4790100 1.4 1012423
12:00+11з4681100 0.0 1014694
15:00+9зсз3692100 1.9 1016421
18:00+8сз3693100 2.6 1018318
21:00+7ссз3692100 3.5 1020323
10 мая, пн
пн1000:00+6сз3890100 0.1 1021306
03:00+6ссз3890100 0.1 1023270
06:00+6ссз488995 0.0 1026464
09:00+8с577571 0.0 1028798
12:00+12с56535 0.0 10281397
15:00+13с56475 0.0 10281717
18:00+13с23635 0.0 102988
21:00+7всв11716 0.0 103110